Wind_Gust
20 18 19 19 19 18 19 21 18 18 15 13 12 12 13 15 13 13 13 13 12 11 12 13 14 14 15 15 15 17 16 15 15 14 15 16 16 16 18 17 15 15
17 15 15 17 18 15 17 18 17 17 17 13 12 13 13 14 14 15 14 14 13 13 13 13 14 15 15 16 16 16 16 15 16 15 16 16 16 16 17 15 15 14
18 18 18 19 23 20 19 17 15 14 14 15 13 12 13 14 15 15 14 13 13 13 13 13 14 15 16 16 16 16 16 15 16 15 15 16 15 16 15 15 15 14
22 22 22 21 23 22 20 17 15 14 15 16 14 14 14 15 16 14 14 13 12 12 13 14 15 15 16 16 16 16 16 16 16 14 15 15 15 15 15 14 14 14
22 22 22 24 23 21 19 18 19 16 17 17 15 15 17 17 17 16 15 14 13 14 14 15 15 16 16 16 16 17 16 16 14 14 15 15 14 13 13 13 13 14
22 23 24 24 25 22 19 20 20 19 19 18 18 17 18 17 17 17 15 16 15 16 16 16 16 16 16 16 16 15 15 15 16 15 16 16 15 14 14 13 13 14
24 22 23 25 24 21 19 19 19 19 19 19 21 19 20 19 18 18 17 16 17 16 16 16 16 16 16 16 15 16 16 16 15 16 16 16 15 14 13 13 15 16
24 23 25 25 25 24 20 21 19 18 17 18 17 19 19 19 18 16 15 16 16 17 17 17 17 17 16 15 17 17 16 15 15 16 15 15 13 14 13 13 14 15
25 24 25 25 25 22 20 20 19 18 19 19 19 19 17 17 18 17 17 17 17 17 18 18 19 18 16 17 18 17 17 16 15 15 15 15 15 15 16 15 14 13
25 26 26 26 25 21 20 19 20 19 19 19 20 20 22 19 18 19 18 17 18 18 19 19 19 18 18 18 18 18 18 18 17 16 15 15 15 15 15 15 14 13
25 27 27 26 22 20 20 19 19 20 19 21 21 21 20 20 19 18 17 18 18 19 20 19 19 19 19 19 18 17 18 17 17 16 15 15 14 14 12 13 13 12
27 27 27 24 22 20 20 19 20 18 19 19 21 21 21 19 19 18 18 19 19 20 19 20 20 19 19 19 19 18 17 16 16 16 16 16 15 15 15 13 12 12
27 27 27 23 22 21 18 19 19 18 19 20 20 21 21 20 20 18 18 18 20 19 20 20 20 19 19 18 19 18 18 17 17 16 16 15 15 16 15 14 13 13
27 26 25 22 22 20 20 19 18 18 18 19 20 21 20 21 20 20 18 19 20 20 20 19 18 19 19 19 18 18 17 17 16 16 16 15 15 16 15 14 13 13
26 26 23 22 22 21 21 21 19 18 19 19 19 20 19 20 20 20 20 20 20 20 21 19 19 18 18 18 18 18 17 17 17 17 16 16 16 16 15 14 15 14
28 26 25 23 23 23 22 22 19 18 19 19 20 20 19 20 20 19 20 20 21 21 20 18 18 15 11 14 11 17 17 18 16 17 16 16 16 16 14 14 15 14
28 28 26 24 22 21 21 22 20 18 18 19 19 20 20 20 20 20 20 21 21 21 20 18 16 15 13 13 13 13 15 16 16 16 15 15 15 15 15 15 15 16
28 29 27 25 22 22 22 21 19 19 19 18 19 19 20 19 19 20 20 20 20 21 20 17 16 10 15 13 12 11 9 13 15 15 15 15 14 15 15 14 14 13
29 30 27 25 24 23 21 20 20 19 19 20 21 19 19 20 20 20 20 20 21 21 20 18 18 10 15 14 12 11 10 10 16 13 16 14 14 14 13 13 13 13
28 28 26 25 24 23 20 20 19 20 21 20 21 20 19 20 19 20 20 20 21 21 19 19 20 11 15 13 12 11 9 11 14 13 13 13 13 13 11 12 12 12
28 28 26 24 24 22 21 20 20 20 21 21 22 22 20 21 20 20 20 20 20 20 20 21 19 14 14 13 11 10 8 10 10 12 13 12 11 10 10 10 9 10
28 26 24 23 23 23 22 22 20 20 21 21 21 22 20 19 19 19 20 20 20 20 19 22 18 15 14 13 11 8 4 11 11 12 11 12 12 12 11 11 10 9
28 26 25 25 23 22 22 24 23 23 23 23 22 23 21 21 20 20 20 21 21 20 21 22 20 15 15 13 12 8 6 9 14 13 12 12 12 12 11 10 9 7
26 26 25 24 23 23 22 23 22 22 21 20 23 22 22 21 20 21 20 21 21 20 21 21 19 15 15 14 13 13 9 10 15 13 13 12 12 10 11 11 10 10
24 24 26 26 25 23 23 22 22 22 20 21 21 21 22 21 20 21 20 20 19 19 15 20 21 16 14 14 13 12 10 11 13 13 13 12 13 13 11 12 12 9
22 22 21 23 24 22 23 20 18 20 22 22 21 22 22 21 20 19 19 18 17 18 20 18 19 17 15 14 14 12 9 11 14 14 16 15 14 16 14 13 14 12
Wind_Speed
10 9 9 8 8 8 9 9 8 8 6 6 6 6 6 6 6 7 7 5 5 5 5 4 4 4 4 4 4 5 5 5 6 5 6 5 5 6 6 6 5 5
10 9 8 7 7 6 7 8 9 8 7 7 6 7 6 5 7 7 6 6 5 6 5 5 4 4 4 4 4 5 5 6 7 5 6 6 5 6 6 5 6 5
10 10 8 8 8 9 8 8 8 7 7 6 6 7 6 5 7 6 6 5 6 5 4 4 5 5 5 4 4 4 5 5 6 5 6 6 4 5 5 5 5 5
9 10 8 8 9 10 8 8 7 7 7 6 6 7 6 5 6 6 6 6 5 5 4 5 5 5 5 4 4 5 6 6 5 4 5 4 4 5 5 4 4 5
9 9 9 8 9 10 8 8 9 8 8 7 6 6 7 7 7 6 6 6 5 5 4 5 5 5 5 4 4 5 5 5 5 4 4 4 3 4 3 4 5 5
9 10 10 10 9 9 9 8 9 8 9 8 6 6 6 7 7 7 6 6 5 5 5 5 5 4 5 4 4 4 4 5 5 5 5 5 5 4 3 4 5 5
11 10 11 10 11 9 9 8 8 8 7 7 6 6 6 7 7 7 7 6 7 6 6 5 5 4 4 4 4 5 5 4 4 5 5 4 4 4 4 4 5 5
11 10 10 10 10 10 9 10 8 8 8 8 6 6 6 7 7 6 6 7 7 7 6 6 5 5 4 4 5 5 4 3 4 5 4 4 4 4 4 4 4 4
12 10 10 12 11 9 9 10 9 8 8 8 7 7 6 6 6 6 6 7 7 6 6 6 5 5 4 4 5 5 5 4 4 4 4 4 4 4 5 4 4 3
11 11 12 12 11 8 10 10 10 8 8 7 7 6 7 6 6 7 6 7 7 7 7 6 6 5 5 5 6 5 5 5 5 4 4 4 4 5 4 4 4 4
11 11 12 12 11 9 11 11 10 9 8 9 8 7 7 7 6 6 7 7 7 8 8 7 6 6 6 5 5 4 5 5 5 4 4 4 4 4 5 4 3 3
12 12 12 12 11 11 12 11 10 9 9 7 8 9 8 7 7 6 7 8 7 8 7 7 7 7 7 6 6 5 5 4 4 4 4 5 4 4 4 4 3 3
11 11 12 11 11 11 10 10 10 9 9 9 8 8 8 7 7 7 6 7 8 7 8 8 7 7 6 6 6 6 4 5 5 5 5 4 4 5 4 4 4 4
11 11 11 11 11 11 11 10 9 9 8 8 8 9 8 8 8 7 6 7 7 7 7 7 7 7 7 7 6 5 5 5 5 5 4 4 5 5 5 5 6 6
10 10 9 11 12 11 10 9 9 8 8 8 8 8 7 7 7 7 8 7 7 7 7 7 6 6 6 6 6 6 5 6 5 6 5 5 5 5 5 6 6 5
11 10 10 11 12 11 10 9 9 8 8 9 9 8 7 7 7 7 7 7 8 8 7 6 5 4 7 10 8 6 6 6 5 5 5 5 5 5 6 6 5 4
11 12 11 12 12 10 9 9 9 8 8 8 8 8 7 7 7 7 7 8 8 8 7 6 4 5 10 12 12 12 6 5 5 5 5 5 5 5 6 6 5 5
12 12 11 11 11 11 10 8 8 8 8 8 7 8 6 6 6 6 6 7 7 8 7 5 6 8 13 12 10 8 6 6 5 5 5 5 5 6 5 5 6 6
12 12 11 12 11 12 10 8 9 8 8 8 8 7 6 7 6 6 6 6 7 8 7 7 6 8 13 12 10 9 7 3 5 4 5 5 4 6 6 5 5 5
12 12 12 11 11 11 10 10 9 9 8 7 7 7 7 6 5 6 6 6 7 7 7 7 6 8 13 11 10 9 7 6 6 5 5 4 4 4 4 4 4 5
14 13 12 12 12 11 11 10 9 8 9 8 7 7 7 6 6 6 6 6 7 6 8 7 6 9 12 11 10 8 6 4 3 5 5 6 6 6 5 5 5 5
13 12 11 12 12 11 12 11 9 9 9 7 7 7 6 5 4 5 5 6 6 6 8 7 6 10 12 11 10 8 4 2 5 5 4 5 5 4 4 3 3 4
12 12 11 13 12 13 12 11 9 8 8 7 8 7 7 7 5 5 5 5 7 7 9 7 7 8 12 11 10 8 2 2 4 5 4 4 4 4 4 4 2 2
12 12 13 13 12 12 12 10 9 7 7 7 8 7 7 7 6 5 5 5 6 8 9 9 7 8 12 12 11 7 2 2 4 4 4 4 5 4 5 5 4 7
13 12 13 13 13 12 11 11 10 8 6 6 6 5 6 6 6 5 5 4 4 9 12 10 8 8 11 12 11 7 4 0 3 5 4 4 4 4 4 5 3 5
11 12 12 13 13 12 10 10 7 7 8 8 6 5 6 7 7 6 5 4 8 9 6 7 9 7 9 12 11 9 6 0 1 1 6 5 5 5 4 5 4 4
Wind_Direction
144 148 151 151 152 155 150 145 139 135 137 141 132 128 125 132 129 110 111 117 119 105 96 97 101 94 83 79 85 93 93 91 82 78 78 78 75 72 66 69 72 64
145 142 148 147 144 141 136 135 136 139 136 134 131 131 134 131 122 122 125 122 109 103 105 108 110 106 102 94 89 94 96 95 96 97 96 86 75 67 69 74 72 66
139 139 146 142 139 131 124 121 125 128 130 132 133 133 136 143 125 120 119 115 107 109 114 112 100 95 99 109 112 104 99 92 87 82 80 82 79 76 79 70 63 72
130 137 129 124 127 121 116 122 122 120 122 124 126 129 126 122 113 119 116 108 108 107 105 97 103 111 112 109 109 96 96 96 99 95 85 74 73 81 76 74 86 86
141 135 131 131 122 123 129 133 132 130 124 118 117 121 125 123 122 118 110 111 110 116 114 112 108 106 117 116 110 107 101 103 106 107 108 105 102 98 97 97 103 97
147 145 143 141 127 131 138 136 132 127 128 127 131 129 131 129 126 127 127 126 129 126 117 117 122 124 121 124 117 115 115 106 108 114 115 112 110 105 103 94 80 66
148 145 145 139 142 138 138 136 128 125 130 131 134 138 136 134 137 138 139 136 133 130 128 134 134 132 135 132 124 112 111 122 125 113 104 103 111 107 102 94 87 86
138 143 144 139 140 144 141 133 131 132 135 135 147 140 149 147 146 147 142 135 131 130 135 138 141 140 131 120 118 123 124 121 116 120 119 116 99 92 86 77 79 83
139 144 144 144 147 147 141 134 131 135 138 150 152 158 160 146 139 131 130 128 123 130 139 143 145 142 128 121 125 131 126 119 119 111 111 112 114 112 105 103 102 108
143 145 148 150 146 141 135 132 131 137 148 157 149 155 142 138 134 138 136 134 138 146 150 151 145 132 132 137 139 133 128 123 122 131 137 128 116 115 110 99 103 112
147 148 150 150 147 143 138 136 138 145 155 155 152 152 145 143 151 149 145 146 153 158 155 152 142 142 145 143 130 131 132 136 143 139 128 120 112 109 105 104 103 91
149 151 151 152 149 145 141 139 141 149 152 152 156 154 146 154 156 154 154 154 160 157 152 146 150 151 147 141 143 138 140 140 127 117 106 102 107 99 97 98 98 87
152 156 153 152 150 143 139 142 146 152 156 157 160 149 153 157 158 155 153 158 161 155 152 153 151 147 143 145 143 145 136 122 117 113 120 123 109 106 104 96 81 64
160 157 147 151 147 143 141 145 148 154 157 153 149 151 157 160 160 157 155 166 158 153 154 150 144 146 146 146 146 134 131 131 131 133 129 118 111 103 95 82 75 68
156 151 143 146 144 142 142 147 149 154 152 146 149 151 157 164 157 155 164 163 150 154 147 144 150 149 151 150 137 138 139 136 137 134 129 123 120 115 104 91 82 80
150 144 148 145 144 142 144 144 150 156 152 151 155 154 159 159 157 160 170 154 158 152 147 147 147 146 150 139 135 143 146 145 136 136 137 133 126 119 100 95 97 96
150 156 148 148 143 139 139 147 154 152 149 153 150 154 160 153 156 168 164 159 159 151 147 151 111 96 124 133 142 147 146 137 142 142 139 127 119 112 111 118 122 120
149 146 141 142 143 142 147 150 148 150 151 152 148 155 155 149 159 168 157 159 154 147 152 113 109 116 108 102 91 84 109 143 145 145 133 130 129 125 136 140 143 149
151 148 143 145 146 147 152 152 152 154 152 148 152 153 144 154 166 159 160 158 149 153 133 115 124 124 109 100 84 80 52 96 147 130 126 140 142 146 150 154 156 146
155 153 149 148 147 149 150 155 155 155 147 148 147 145 150 159 164 158 161 157 155 153 124 130 126 132 114 103 94 78 58 32 137 146 150 134 131 126 126 138 144 141
157 157 154 150 151 151 154 157 160 153 154 157 154 155 159 163 165 164 164 160 157 149 123 137 138 139 122 113 99 83 56 2 139 104 124 136 137 138 150 155 169 163
160 157 156 154 153 155 159 163 166 157 161 153 152 154 163 155 159 162 163 164 160 141 124 136 146 150 132 125 116 102 73 62 132 145 132 117 125 123 118 101 93 112
161 153 155 152 154 157 162 162 162 155 160 150 153 163 163 157 156 162 166 167 162 134 130 138 152 168 144 139 134 120 105 146 117 124 125 131 128 132 129 123 96 55
162 160 156 155 157 162 162 159 157 162 162 147 160 163 161 164 150 163 172 173 169 128 139 146 160 175 158 152 142 149 153 157 137 134 145 147 155 152 131 114 99 94
168 162 158 157 162 165 162 160 160 162 154 144 161 160 152 152 160 164 175 170 156 119 138 145 160 175 175 162 157 154 174 252 139 154 158 147 160 157 150 121 124 90
159 158 159 162 162 158 158 157 154 148 151 156 162 159 154 162 168 161 168 114 88 115 123 148 160 174 185 176 165 165 184 157 27 215 164 165 160 184 163 133 152 135